Albuquerque, NM

3:18 AM MST on December 14, 2017 (GMT -0700)
Albuquerque International Sunport

Weather History for KABQ - July, 2013

Change the Weather History Date:

Wednesday, July 17, 2013

  Actual Average Record
Temperature  
Mean Temperature 71 °F 78 °F  
Max Temperature 81 °F 90 °F 104 °F (1980)
Min Temperature 60 °F 67 °F 55 °F (1918)
Degree Days  
Heating Degree Days 0 0  
Month to date heating degree days 0 0  
Since 1 June heating degree days 0 4  
Since 1 July heating degree days 0 0  
Cooling Degree Days 6 13  
Month to date cooling degree days 223 232  
Year to date cooling degree days 795 632  
Since 1 June cooling degree days 678 534  
Growing Degree Days 22 (Base 50)    
Moisture  
Dew Point 51 °F    
Average Humidity 54    
Maximum Humidity 78    
Minimum Humidity 30    
Precipitation  
Precipitation 0.05 in 0.05 in 0.80 in (1899)
Month to date precipitation 1.17 0.73  
Year to date precipitation 1.87 3.93  
Snow  
Snow 0.00 in - - ()
Month to date snowfall 0.0  
Since 1 June snowfall 0.0  
Since 1 July snowfall 0.0  
Snow Depth 0.00 in    
Sea Level Pressure  
Sea Level Pressure 30.13 in    
Wind  
Wind Speed 13 mph (ESE)    
Max Wind Speed 22 mph    
Max Gust Speed 28 mph    
Visibility 10 miles    
Events Rain    
T = Trace of Precipitation, MM = Missing Value Source: NWS Daily Summary

Daily Weather History Graph

Daily Weather History Graph

Search for Another Location

Airport or City:

Trip Planner

Search our weather history database for the weather conditions in past years. The results will help you decide how hot, cold, wet, or windy it might be!

Date:

Astronomy

Jul. 17, 2013 Rise Set
Actual Time 6:05 AM MDT 8:19 PM MDT
Civil Twilight 5:36 AM MDT 8:48 PM MDT
Nautical Twilight 5:01 AM MDT 9:23 PM MDT
Astronomical Twilight 4:22 AM MDT 10:01 PM MDT
Moon 3:14 PM MDT (7/17) 1:09 AM MDT (7/17)
Length of Visible Light 15h 12m
Length of Day
14h 14m
Waxing Gibbous, 68% of the Moon is Illuminated
Jul 17
Waxing Gibbous
Jul 22
Full
Jul 29
Last Quarter
Aug 6
New
Aug 14
First Quarter

Hourly Weather History & Observations

Time (MDT) Temp. Dew Point Humidity Pressure Visibility Wind Dir Wind Speed Gust Speed Precip Events Conditions
12:52 AM 62.1 °F 54.0 °F 75% 30.13 in 10.0 mi East 17.3 mph - 0.03 in Rain Light Rain
1:52 AM 61.0 °F 55.9 °F 83% 30.13 in 10.0 mi ESE 6.9 mph - 0.05 in   Overcast
2:52 AM 63.0 °F 55.0 °F 75% 30.12 in 10.0 mi East 13.8 mph - N/A   Mostly Cloudy
3:52 AM 63.0 °F 54.0 °F 72% 30.12 in 10.0 mi East 12.7 mph - N/A   Mostly Cloudy
4:52 AM 62.1 °F 54.0 °F 75% 30.14 in 10.0 mi East 11.5 mph - N/A   Partly Cloudy
5:52 AM 62.1 °F 52.0 °F 70% 30.14 in 10.0 mi East 9.2 mph - N/A   Scattered Clouds
6:52 AM 62.1 °F 52.0 °F 70% 30.18 in 10.0 mi East 13.8 mph - N/A   Scattered Clouds
7:52 AM 64.0 °F 52.0 °F 65% 30.19 in 10.0 mi East 9.2 mph - N/A   Scattered Clouds
8:52 AM 66.9 °F 51.1 °F 57% 30.20 in 10.0 mi ENE 12.7 mph - N/A   Scattered Clouds
9:52 AM 69.1 °F 50.0 °F 51% 30.19 in 10.0 mi ESE 12.7 mph - N/A   Scattered Clouds
10:52 AM 71.1 °F 50.0 °F 47% 30.18 in 10.0 mi ESE 13.8 mph - N/A   Scattered Clouds
11:52 AM 71.1 °F 48.9 °F 45% 30.18 in 10.0 mi ESE 5.8 mph 18.4 mph N/A   Scattered Clouds
12:52 PM 75.9 °F 48.9 °F 38% 30.15 in 10.0 mi SSE 13.8 mph 18.4 mph N/A   Mostly Cloudy
1:52 PM 75.0 °F 46.9 °F 37% 30.14 in 10.0 mi Variable 6.9 mph - N/A   Mostly Cloudy
2:52 PM 77.0 °F 48.0 °F 36% 30.11 in 10.0 mi East 15.0 mph 19.6 mph N/A   Mostly Cloudy
3:52 PM 79.0 °F 46.9 °F 32% 30.09 in 10.0 mi East 11.5 mph - N/A   Mostly Cloudy
4:52 PM 80.1 °F 46.0 °F 30% 30.07 in 10.0 mi SE 13.8 mph 18.4 mph N/A   Mostly Cloudy
5:52 PM 79.0 °F 46.9 °F 32% 30.05 in 10.0 mi ESE 8.1 mph 19.6 mph N/A   Mostly Cloudy
6:52 PM 79.0 °F 48.0 °F 34% 30.05 in 10.0 mi ESE 18.4 mph 23.0 mph N/A   Mostly Cloudy
7:52 PM 75.0 °F 52.0 °F 44% 30.08 in 10.0 mi SE 19.6 mph - N/A   Mostly Cloudy
8:52 PM 71.1 °F 53.1 °F 53% 30.10 in 10.0 mi ESE 15.0 mph - N/A   Scattered Clouds
9:52 PM 70.0 °F 53.1 °F 55% 30.13 in 10.0 mi ESE 16.1 mph - N/A   Scattered Clouds
10:52 PM 69.1 °F 53.1 °F 57% 30.14 in 10.0 mi ESE 16.1 mph - N/A   Mostly Cloudy
11:52 PM 68.0 °F 53.1 °F 59% 30.14 in 10.0 mi ESE 17.3 mph - N/A   Scattered Clouds